Regional Weather Roundup
Issued by NWS

Home | Current Version | Previous Version | Text Only | Print | Product List | Glossary On
Versions: 1 2 3 4 5 6 7 8 9 10 11 12 13 14 15 16 17 18 19 20 21 22 23 24 25 26 27 28 29 30 31 32 33 34 35 36 37 38 39 40 41 42 43 44 45 46 47 48 49 50
000
ASUS45 KREV 281510
RWRNV
NEVADA REGIONAL WEATHER ROUNDUP
NATIONAL WEATHER SERVICE RENO NV
800 AM PDT TUE APR 28 2015

NOTE: "FAIR" INDICATES FEW OR NO CLOUDS BELOW 12,000 FEET WITH NO
SIGNIFICANT WEATHER AND/OR OBSTRUCTIONS TO VISIBILITY.

NVZ001-003-004-281600-
WESTERN NEVADA

CITY           SKY/WX    TMP DP  RH WIND       PRES   REMARKS
RENO           MOSUNNY   48  29  47 CALM      30.17F
CARSON CITY    FAIR      46  28  49 CALM      30.19S
MINDEN         FAIR      45  28  53 CALM      30.20
SLIDE MTN        N/A     41  21  45 W13         N/A
PYRAMID LAKE     N/A     55 N/A N/A CALM        N/A
FALLON         PTSUNNY   51  33  50 S5        30.15S
LOVELOCK       MOSUNNY   47  35  63 CALM      30.16S
HAWTHORNE      SUNNY     52  28  40 CALM      30.18S
$$

NVZ002-CAZ072-073-281600-
NORTHERN AND CENTRAL SIERRA

CITY           SKY/WX    TMP DP  RH WIND       PRES   REMARKS
S. LAKE TAHOE  SUNNY     39  30  70 CALM      30.21S
TRUCKEE        MOSUNNY   34  28  80 CALM      30.22S
SQUAW VLY 8000   N/A     46  32  57 S8          N/A
BLUE CANYON    SUNNY     57  38  48 VRB5      30.17S
MAMMOTH LAKES  FAIR      41  21  45 CALM      30.27S
BRIDGEPORT     FAIR      35  28  75 CALM      30.21F
$$

NVZ030-031-036-281600-
NORTHERN NEVADA

CITY           SKY/WX    TMP DP  RH WIND       PRES   REMARKS
ELKO           SUNNY     45  28  51 E3        30.24S
WINNEMUCCA     MOSUNNY   49  33  54 E12       30.18R
WENDOVER       SUNNY     54  27  35 CALM      30.25R
$$

NVZ035-037-281600-
CENTRAL NEVADA

CITY           SKY/WX    TMP DP  RH WIND       PRES   REMARKS
ELY            SUNNY     41  22  46 S5        30.29F
EUREKA           N/A     48  20  32 CALM      30.24S
$$

NVZ013-014-281600-
SOUTH CENTRAL NEVADA

CITY           SKY/WX    TMP DP  RH WIND       PRES   REMARKS
TONOPAH        SUNNY     50  13  22 N7        30.23R
$$

NVZ017-020-022-281600-
SOUTHERN NEVADA

CITY           SKY/WX    TMP DP  RH WIND       PRES   REMARKS
LAS VEGAS      SUNNY     67  33  28 S9        30.07R
N. LAS VEGAS   SUNNY     68  24  19 N8        30.10R
NELLIS AFB     SUNNY     69  31  24 SW2       30.09R
HENDERSON        N/A     67  31  26 NE7       30.13R
MERCURY        SUNNY     63  22  20 NE14      30.13
$$



USA.gov is the U.S. government's official web portal to all federal, state and local government web resources and services.